Regional Weather Roundup
Issued by NWS San Angelo, TX

Home | Current Version | Previous Version | Text Only | Print | Product List | Glossary On
Versions: 1 2 3 4 5 6 7 8 9 10 11 12 13 14 15 16 17 18 19 20 21 22 23 24 25 26 27 28 29 30 31 32 33 34 35 36 37 38 39 40 41 42 43 44 45 46 47 48 49 50
000
ASUS44 KSJT 241411
RWRSJT
WEST CENTRAL TEXAS REGIONAL WEATHER ROUNDUP
NATIONAL WEATHER SERVICE SAN ANGELO TX
900 AM CDT TUE MAY 24 2016

NOTE: "FAIR" INDICATES FEW OR NO CLOUDS BELOW 12,000 FEET WITH NO
SIGNIFICANT WEATHER AND/OR OBSTRUCTIONS TO VISIBILITY.

TXZ049-054-064>066-071>073-076>078-098-099-113-114-127-128-139-140-
154-155-168>170-241500
...LOCATIONS ACROSS WEST CENTRAL TEXAS...

CITY           SKY/WX    TMP DP  RH WIND       PRES   REMARKS
SAN ANGELO     PTSUNNY   77  68  73 S10       29.91R
ABILENE        CLOUDY    74  70  87 SE15      29.93R
DYESS AFB      CLOUDY    75  64  69 SE13      29.90R
JUNCTION       CLOUDY    76  68  76 S15G21    29.93R
SWEETWATER     CLOUDY    75  71  89 SE14      29.94S
BROWNWOOD      CLOUDY    75  70  83 SE10      29.95R
COLEMAN        CLOUDY    74  68  81 S14G20    29.95R
SONORA         CLOUDY    73  68  83 S12       29.96R
OZONA          CLOUDY    72  68  88 S10       29.95R
BRADY          NOT AVBL
$$

TEXAS PANHANDLE/OKLAHOMA PANHANDLE

CITY           SKY/WX    TMP DP  RH WIND       PRES   REMARKS
AMARILLO       MOSUNNY   69  63  81 S26G32    29.90S
BORGER         SUNNY     73  64  73 S20G30    29.87R
CANADIAN       CLOUDY    75  70  83 SW16G23   29.86R
DALHART        SUNNY     62  47  57 SW9       29.89R
DUMAS          SUNNY     69  56  64 S15       29.88R
GUYMON         NOT AVBL
HEREFORD       MOSUNNY   69  63  83 SW13      29.93R
PAMPA          MOSUNNY   74  67  79 S21G29    29.90R
PERRYTON       SUNNY     75  68  78 S23G29    29.85S
$$

SOUTHERN PANHANDLE/SOUTH PLAINS/ROLLING PLAINS

CITY           SKY/WX    TMP DP  RH WIND       PRES   REMARKS
LUBBOCK        CLOUDY    72  67  84 S14       29.91R HAZE
SNYDER           N/A     75  70  85 S15       29.91R
CHILDRESS      MOSUNNY   76  72  87 S16       29.88S
SEMINOLE       PTSUNNY   72  66  82 S12       29.93R
$$

PERMIAN BASIN

CITY           SKY/WX    TMP DP  RH WIND       PRES   REMARKS
MIDLAND        CLOUDY    76  67  73 S17       29.90R
ODESSA         CLOUDY    76  66  71 S20       29.91R
WINK           SUNNY     73  64  73 MISG      29.89R
$$

FAR WEST/SOUTHWEST MOUNTAINS/TRANS PECOS

CITY           SKY/WX    TMP DP  RH WIND       PRES   REMARKS
ALPINE         PTSUNNY   75  38  26 SW7       30.07S
DRYDEN         NOT AVBL
EL PASO        MOSUNNY   72  23  16 S6        29.99R
FORT STOCKTON  MOSUNNY   76  64  66 S7        29.92R
GUADALUPE PASS NOT AVBL
MARFA          CLOUDY    63  56  78 CALM      30.08R
PECOS          SUNNY     71  34  25 W5        29.91R
$$

DALLAS/FORT WORTH METROPLEX

CITY           SKY/WX    TMP DP  RH WIND       PRES   REMARKS
DFW AIRPORT    CLOUDY    75  71  87 SE7       29.96R FOG
FTW MEACHAM    CLOUDY    76  70  82 SE8       29.95R
DAL-EXECUTIVE  CLOUDY    74  70  87 SE6       29.96S
GRAND PRAIRIE  LGT RAIN  73  73 100 E3        29.98R
ADDISON        CLOUDY    73  73 100 MISG      29.97S
MESQUITE       CLOUDY    73  72  94 E6        29.98R
LANCASTER      CLOUDY    73  68  86 E5        29.98R
$$

NORTH CENTRAL TEXAS

CITY           SKY/WX    TMP DP  RH WIND       PRES   REMARKS
SHRMAN/DENISON CLOUDY    70  63  78 S9        29.97S
GAINESVILLE    CLOUDY    71  68  90 SE8       29.97R
BRIDGEPORT     NOT AVBL
DENTON         CLOUDY    74  71  91 SE13      29.95R
WAXAHACHIE     CLOUDY    73  73  98 SE3       29.98R
GRANBURY       CLOUDY    77  71  82 SE8       29.96R
$$

WESTERN NORTH TEXAS

CITY           SKY/WX    TMP DP  RH WIND       PRES   REMARKS
WICHITA FALLS  SUNNY     76  70  82 SE13      29.89S
VERNON         SUNNY     76  68  78 S9        29.89R
BRECKENRIDGE   PTSUNNY   78  69  75 SE14G20   29.92R HAZE
COMANCHE       RAIN      73  73 100 SE6       29.97R
$$

CENTRAL AND SOUTH CENTRAL TEXAS

CITY           SKY/WX    TMP DP  RH WIND       PRES   REMARKS
AUSTIN/BERGSTM PTSUNNY   78  73  84 S10       29.94R
WACO           CLOUDY    77  71  82 S10       29.96R
HILLSBORO      CLOUDY    74  71  88 SE9       29.97R
TEMPLE         CLOUDY    76  72  87 S13       29.96R
KILLEEN-GRAY   CLOUDY    76  71  85 S10       29.95R
FORT HOOD      CLOUDY    75  72  88 S8        29.93S
GEORGETOWN     PTSUNNY   77  70  78 S9        29.94S
LAGO VISTA     CLOUDY    75  72  88 SE7       29.97R
SAN MARCOS     CLOUDY    75  73  94 SE9       29.96R
NEW BRAUNFELS  CLOUDY    78  73  84 SE9       29.93R
RANDOLPH AFB   CLOUDY    77  77 100 SE8       29.94R
SAN ANTONIO    CLOUDY    77  73  87 SE10      29.95R
STINSON        CLOUDY    80  73  79 SE8       29.91R
PLEASANTON     NOT AVBL
LA GRANGE        N/A     79  76  89 S6        29.93S
GIDDINGS       PTSUNNY   78  73  84 S8        29.99S
$$

EAST TEXAS

CITY           SKY/WX    TMP DP  RH WIND       PRES   REMARKS
PARIS          CLOUDY    72  63  73 S5        30.00F
CLARKSVILLE    NOT AVBL
TYLER          CLOUDY    75  69  81 S8        29.99R
LONGVIEW       PTSUNNY   75  70  84 SE8       30.00R
PALESTINE      CLOUDY    74  71  89 SE7       29.99R
NACOGDOCHES    CLOUDY    73  72  94 S8        30.00R
$$

TEXAS HILL COUNTRY AND EDWARDS PLATEAU

CITY           SKY/WX    TMP DP  RH WIND       PRES   REMARKS
LLANO          CLOUDY    77  72  83 SE6       29.98R
HORSESHOE BAY  CLOUDY    76  71  82 S6        29.95R
KERRVILLE      CLOUDY    74  71  91 SE9       29.96R
FREDERICKSBRG  CLOUDY    74  68  81 S10       29.97R
ROCKSPRINGS    CLOUDY    72  70  94 S12G18    29.96R FOG
HONDO          CLOUDY    76  74  93 SE12      29.94S
UVALDE         CLOUDY    75  73  91 E8        29.91S FOG
DEL RIO        CLOUDY    75  73  93 SE12      29.86R
$$

SOUTHEAST TEXAS

CITY           SKY/WX    TMP DP  RH WIND       PRES   REMARKS
COLLEGE STN    CLOUDY    76  74  93 S7        29.96R
CALDWELL       CLOUDY    75  75 100 S7        29.99R
CROCKETT       PTSUNNY   75  72  88 SE7       30.01R
BRENHAM        CLOUDY    79  76  90 S8        29.97R
HUNTSVILLE     CLOUDY    77  71  82 MISG      29.97R
CONROE         CLOUDY    77  73  87 SE9       29.97R
HOUSTON BUSH   PTSUNNY   78  73  84 SE14      29.95R
HOUSTON HOBBY  PTSUNNY   81  74  79 SE13G18   29.94R
PERLAND        PTSUNNY   82  75  79 SE14      29.96R
WHARTON        PTSUNNY   77  76  96 SE7       29.95R
$$

THE UPPER TEXAS COAST

CITY           SKY/WX    TMP DP  RH WIND       PRES   REMARKS
ORANGE         CLOUDY    81  72  75 S10       30.01R
PORT ARTHUR    CLOUDY    80  74  81 SE10      29.98R
GALVESTON      PTSUNNY   80  77  90 SE15      29.96R
ANGLETON       CLOUDY    80  76  87 SE8G20    29.94R
BAY CITY       NOT AVBL
$$

TEXAS COASTAL BEND, RIO GRANDE PLAINS DEEP SOUTH TEXAS

CITY           SKY/WX    TMP DP  RH WIND       PRES   REMARKS
VICTORIA       PTSUNNY   80  76  87 SE13      29.93R
BEEVILLE       CLOUDY    72  72  99 SE12G17   29.90S
ROCKPORT       CLOUDY    81  76  84 SE12      29.91R
PORT ARANSAS   CLOUDY    82  79  90 SE12      29.91R
PORT LAVACA    CLOUDY    80  78  92 SE9       29.94R
CORPUS CHRISTI PTSUNNY   82  77  84 SE15      29.89R
KINGSVILLE NAS PTSUNNY   84  81  90 SE13      29.88R
COTULLA        CLOUDY    80  74  81 SE12      29.88R
LAREDO         CLOUDY    80  75  84 E12       29.87S
BROWNSVILLE    MOSUNNY   82  79  89 SE17G24   29.87R
PORT ISABEL    PTSUNNY   85  78  80 SE17G25   29.86R HAZE
HEBBRONVILLE   CLOUDY    79  74  85 S10       29.90R
MCALLEN        CLOUDY    84  78  82 SE12      29.87R HAZE
WESLACO        HAZE      83  76  79 SE12G18   29.86R VSB<1/4
FALFURRIAS     CLOUDY    81  76  85 SE7       29.88R
EDINBURG       PTSUNNY   84  77  79 SE10      29.87R
$$



USA.gov is the U.S. government's official web portal to all federal, state and local government web resources and services.